Location: Libas
(9.8833°N, 125.9833°E)
Time: 10:28:51
(UTC+00:00)

Envisat - Pass Details

Date: 29 January 2021
Orbit: 764 x 766 km, 98.1° (Epoch: 25 February)

Event Time Altitude Azimuth Distance (km) Brightness Sun altitude
Rises 20:37:02 0° 23° (NNE) 3,218 6.3 -20.1°
Reaches altitude 10° 20:39:26 10° 29° (NNE) 2,292 5.6 -19.5°
Maximum altitude 20:44:14 44° 101° (E) 1,040 4.2 -18.4°
Drops below altitude 10° 20:49:03 10° 173° (S) 2,293 5.7 -17.2°
Sets 20:51:26 0° 179° (S) 3,219 6.4 -16.7°
